Weather History for Buffalo, WY

Change the Weather History Date:

Friday, November 1, 2013

  Actual Average Record
Temperature  
Mean Temperature 40 °F 41 °F  
Max Temperature 47 °F 52 °F 67 °F (2008)
Min Temperature 32 °F 29 °F 4 °F (2002)
Degree Days  
Heating Degree Days 25 24  
Month to date heating degree days 25 24  
Since 1 July heating degree days 864 930  
Cooling Degree Days 0 0  
Month to date cooling degree days 0 0  
Year to date cooling degree days 709 492  
Moisture  
Dew Point 25 °F    
Average Humidity 58    
Maximum Humidity 82    
Minimum Humidity 34    
Precipitation  
Precipitation 0.01 in 0.01 in 0.13 in (2011)
Month to date precipitation 0.01 0.01  
Year to date precipitation 10.02 12.52  
Sea Level Pressure  
Sea Level Pressure 30.07 in    
Wind  
Wind Speed 15 mph (NW)    
Max Wind Speed 31 mph    
Max Gust Speed 40 mph    
Visibility 10 miles    
Events Rain , Snow    
T = Trace of Precipitation, MM = Missing Value Source: NWS Daily Summary

Daily Weather History Graph

Daily Weather History Graph

Search for Another Location

Airport:

Trip Planner

Search our weather history database for the weather conditions in past years. The results will help you decide how hot, cold, wet, or windy it might be!

Date:

Astronomy

Nov. 01, 2013 Rise Set
Actual Time 7:44 AM MDT 5:55 PM MDT
Civil Twilight 7:14 AM MDT 6:26 PM MDT
Nautical Twilight 6:39 AM MDT 7:00 PM MDT
Astronomical Twilight 6:06 AM MDT 7:34 PM MDT
Moon 5:35 AM MDT (11/1) 4:53 PM MDT (11/1)
Length of Visible Light 11h 11m
Length of Day
10h 11m
Waning Crescent, 4% of the Moon is Illuminated
Nov 1
Waning Crescent
Nov 3
New
Nov 9
First Quarter
Nov 17
Full
Nov 25
Last Quarter

Hourly Weather History & Observations

Time (MDT) Temp. Windchill Dew Point Humidity Pressure Visibility Wind Dir Wind Speed Gust Speed Precip Events Conditions
12:46 AM 37.4 °F 26.9 °F 30.2 °F 75% 29.92 in 10.0 mi NNW 20.7 mph 39.1 mph 0.00 in Rain Light Rain
12:53 AM 36.0 °F 24.7 °F 30.9 °F 82% 29.92 in 10.0 mi NNW 21.9 mph 27.6 mph 0.00 in Rain Light Rain
1:18 AM 33.8 °F 21.9 °F 30.2 °F 87% 29.94 in 6.0 mi NNW 21.9 mph 38.0 mph 0.01 in Snow Light Snow
1:40 AM 33.8 °F 24.3 °F 32.0 °F 93% 29.94 in 10.0 mi NNW 13.8 mph 25.3 mph 0.01 in   Scattered Clouds
1:53 AM 36.0 °F 26.7 °F 30.9 °F 82% 29.92 in 10.0 mi NNW 15.0 mph 28.8 mph 0.01 in   Scattered Clouds
2:53 AM 35.1 °F 26.9 °F 30.0 °F 82% 29.96 in 9.0 mi NNW 11.5 mph 36.8 mph 0.00 in Snow Light Snow
3:53 AM 36.0 °F 29.6 °F 28.9 °F 76% 29.97 in 9.0 mi NNW 8.1 mph - 0.00 in   Mostly Cloudy
4:53 AM 39.0 °F 29.9 °F 25.0 °F 57% 29.99 in 10.0 mi NW 17.3 mph 21.9 mph N/A   Overcast
5:53 AM 39.0 °F 28.3 °F 24.1 °F 55% 30.02 in 10.0 mi NNW 24.2 mph 39.1 mph N/A   Overcast
6:53 AM 39.9 °F 30.2 °F 23.0 °F 51% 30.04 in 10.0 mi NNW 20.7 mph 31.1 mph N/A   Overcast
7:53 AM 37.0 °F 27.0 °F 24.1 °F 59% 30.08 in 10.0 mi NNW 18.4 mph 26.5 mph N/A   Mostly Cloudy
8:53 AM 41.0 °F 31.4 °F 23.0 °F 49% 30.10 in 10.0 mi NNW 21.9 mph 29.9 mph N/A   Mostly Cloudy
9:53 AM 43.0 °F 34.0 °F 24.1 °F 47% 30.12 in 10.0 mi NNW 21.9 mph 28.8 mph N/A   Mostly Cloudy
10:53 AM 43.0 °F 33.5 °F 23.0 °F 45% 30.13 in 10.0 mi NNW 24.2 mph 36.8 mph N/A   Mostly Cloudy
11:53 AM 44.1 °F 34.2 °F 23.0 °F 43% 30.13 in 10.0 mi North 28.8 mph 39.1 mph N/A   Scattered Clouds
12:53 PM 45.0 °F 36.2 °F 23.0 °F 42% 30.13 in 10.0 mi North 24.2 mph 35.7 mph N/A   Partly Cloudy
1:53 PM 46.0 °F 37.0 °F 21.9 °F 39% 30.12 in 10.0 mi North 27.6 mph 35.7 mph N/A   Clear
2:53 PM 46.0 °F 38.0 °F 19.9 °F 35% 30.12 in 10.0 mi NNW 21.9 mph 29.9 mph N/A   Clear
3:53 PM 46.0 °F 38.3 °F 21.9 °F 39% 30.13 in 10.0 mi North 20.7 mph 26.5 mph N/A   Partly Cloudy
4:53 PM 45.0 °F 39.7 °F 23.0 °F 42% 30.13 in 10.0 mi North 10.4 mph - N/A   Partly Cloudy
5:53 PM 41.0 °F 39.0 °F 23.0 °F 49% 30.15 in 10.0 mi SSW 3.5 mph - N/A   Clear
6:53 PM 37.9 °F 35.5 °F 23.0 °F 55% 30.17 in 10.0 mi WSW 3.5 mph - N/A   Clear
7:53 PM 34.0 °F 28.0 °F 24.1 °F 67% 30.19 in 10.0 mi WSW 6.9 mph - N/A   Clear
8:53 PM 34.0 °F 28.0 °F 23.0 °F 64% 30.17 in 10.0 mi WSW 6.9 mph - N/A   Clear
9:53 PM 33.1 °F 26.9 °F 23.0 °F 66% 30.17 in 10.0 mi WSW 6.9 mph - N/A   Clear
10:53 PM 33.1 °F 26.1 °F 21.9 °F 64% 30.17 in 10.0 mi WSW 8.1 mph - N/A   Clear
11:53 PM 34.0 °F 29.8 °F 21.9 °F 61% 30.16 in 10.0 mi West 4.6 mph - N/A   Clear